Content
SEND FEEDBACK

Daily
Averages
Monthly
Summary
United States of America

POTTS JUNCTION, GUAM


Home > North America > United States > Guam
Elevation: 110 meters     Latitude: 13 33N     Longitude: 144 50E

WEATHER
 
SELECT A DAY
Number of Records: 208,919;   Date Range: 1/1/95 - 7/23/14
 
SHARE

PRINT THIS DATA

[ ← Previous Day ]
WEATHER ALMANAC - 22 FEBRUARY, 2013
[ Next Day → ]
[ °F ]   °C
Weather ElementAverageHighLow
Temperature26.1 °C30.1 °C (12:54 pm) (3:06 am)
Dewpoint21.5 °C23.6 °C (11:54 pm) (7:00 pm)
Humidity75.7 %86 % (11:54 pm)66 % (10:36 am)
Barometer1011.9 hPa1013.5 hPa (10:36 am)1010.2 hPa (2:54 am)
Wind Speed23.5 km/h38.9 km/h (12:54 pm)
Wind Gust50.1 km/h (2:54 pm)
Weather ElementAverage
Visibility16.1 km
Wind DirectionENE (67.3 °)

Weather ElementTotal
Precipitation---
Heating Degree Days12.2 (Base 18.3)
Averaged from 30 records on 22 February, 2013
WEATHER CONDITIONS BREAKOUT
WIND DIRECTION BREAKOUT
WEATHER BY HOUR - 22 FEBRUARY, 2013
[ °F ]   °C
Local TimeTemperatureDewpointHumidityBarometerVisibilityWind DirectionWind SpeedGust SpeedPrecipitationEventsConditions
1:54 AM25.9 °C22.4 °C81 %1010.8 hPa16.1 kmENE (70°)20.4 km/hPartly Cloudy
2:54 AM25.9 °C22.7 °C82 %1010.2 hPa16.1 kmENE (60°)16.7 km/hMostly Cloudy
3:06 AM-17.8 °C-17.8 °C1010.8 hPa16.1 kmENE (70°)20.4 km/hScattered Clouds
3:54 AM26 °C22 °C78 %1010.5 hPa16.1 kmEast (80°)20.4 km/hPartly Cloudy
4:25 AM26 °C22 °C78 %1010.5 hPa16.1 kmEast (80°)20.4 km/h35.2 km/hPartly Cloudy
4:54 AM26 °C22.3 °C80 %1010.2 hPa16.1 kmEast (80°)22.2 km/hPartly Cloudy
5:54 AM25.6 °C21.7 °C79 %1010.8 hPa16.1 kmEast (80°)20.4 km/hPartly Cloudy
6:54 AM25.5 °C21.8 °C80 %1011.5 hPa16.1 kmEast (80°)24.1 km/hPartly Cloudy
7:54 AM25.6 °C22.2 °C81 %1012.5 hPa16.1 kmENE (70°)16.7 km/hMostly Cloudy
8:07 AM26 °C22 °C78 %1013.2 hPa16.1 kmENE (70°)20.4 km/hMostly Cloudy
8:54 AM27.7 °C22.7 °C74 %1012.9 hPa16.1 kmENE (70°)22.2 km/hScattered Clouds
9:54 AM27.6 °C22.5 °C74 %1013.2 hPa16.1 kmENE (60°)29.6 km/h46.3 km/hMostly Cloudy
10:36 AM30 °C23 °C66 %1013.5 hPa16.1 kmNE (50°)22.2 km/h42.6 km/hMostly Cloudy
10:54 AM29.5 °C23.2 °C69 %1012.5 hPa16.1 kmENE (70°)24.1 km/h40.7 km/hMostly Cloudy
11:06 AM29 °C23 °C70 %1013.2 hPa16.1 kmEast (80°)31.5 km/h42.6 km/hPartly Cloudy
11:54 AM29.4 °C23.1 °C69 %1011.9 hPa16.1 kmENE (70°)37 km/h44.4 km/hScattered Clouds
12:54 PM30.1 °C23.1 °C66 %1011.2 hPa16.1 kmENE (60°)38.9 km/h48.1 km/hPartly Cloudy
1:54 PM30.1 °C23.3 °C67 %1010.8 hPa16.1 kmEast (80°)35.2 km/h44.4 km/hScattered Clouds
2:54 PM29.6 °C22.8 °C67 %1010.2 hPa16.1 kmENE (70°)31.5 km/h50.1 km/hPartly Cloudy
3:45 PM30 °C23 °C66 %1010.8 hPa16.1 kmEast (80°)25.9 km/hMostly Cloudy
3:54 PM29.3 °C23 °C69 %1010.8 hPa16.1 kmENE (70°)27.8 km/h40.7 km/hMostly Cloudy
4:17 PM29 °C23 °C70 %1010.8 hPa16.1 kmNE (50°)29.6 km/hMostly Cloudy
4:54 PM28.8 °C23.5 °C73 %1010.5 hPa16.1 kmENE (70°)22.2 km/hScattered Clouds
5:54 PM27.6 °C23.3 °C77 %1011.2 hPa16.1 kmNE (50°)25.9 km/hScattered Clouds
6:54 PM26.6 °C23.1 °C81 %1011.9 hPa16.1 kmENE (60°)20.4 km/hScattered Clouds
7:54 PM26.4 °C23.4 °C83 %1012.5 hPa16.1 kmENE (60°)16.7 km/hPartly Cloudy
8:54 PM26.5 °C23.5 °C83 %1012.9 hPa16.1 kmNE (50°)18.5 km/hMostly Cloudy
9:54 PM26.5 °C23.4 °C83 %1013.5 hPa16.1 kmENE (60°)13 km/hScattered Clouds
10:54 PM26.3 °C23.5 °C84 %1013.5 hPa16.1 kmENE (60°)14.8 km/hScattered Clouds
11:54 PM26.1 °C23.6 °C86 %1013.2 hPa16.1 kmENE (60°)13 km/hScattered Clouds
Hourly data recorded from PGUM, located 0 kilometers away from Potts Junction, Guam







STORIES FROM OUR PARTNERS